This is the latest recevied weather packets stored in our database for station/object N8ESC. If no packets are shown the sender has not sent any weather packets the latest 1 day(s).
| Time | Temp. | Humidity | Pressure | Rain* | Wind** | Luminosity | Snow |
|---|---|---|---|---|---|---|---|
| 1778037377 | 5° C | 50% | 1009.3 hPa | 0 mm | 1.34 m/s, 346° | 0 W/m² | - |
| 1778037074 | 4.44° C | 61% | 1009.1 hPa | 0 mm | 0.45 m/s, 32° | 0 W/m² | - |
| 1778036772 | 4.44° C | 63% | 1009.3 hPa | 0 mm | 0.45 m/s, 339° | 0 W/m² | - |
| 1778036469 | 4.44° C | 63% | 1009.2 hPa | 0 mm | 0.89 m/s, 51° | 0 W/m² | - |
| 1778036166 | 4.44° C | 62% | 1009.4 hPa | 0 mm | 0 m/s | 0 W/m² | - |
| 1778035862 | 4.44° C | 61% | 1009.4 hPa | 0 mm | 0.45 m/s, 47° | 0 W/m² | - |
| 1778035559 | 4.44° C | 61% | 1009.1 hPa | 0 mm | 0.89 m/s, 41° | 0 W/m² | - |
| 1778035256 | 5° C | 61% | 1008.8 hPa | 0 mm | 2.24 m/s, 65° | 0 W/m² | - |
| 1778034951 | 5° C | 61% | 1008.8 hPa | 0 mm | 0.45 m/s, 35° | 0 W/m² | - |
| 1778034649 | 5° C | 61% | 1008.8 hPa | 0 mm | 1.34 m/s, 60° | 0 W/m² | - |
| 1778034347 | 5° C | 61% | 1008.6 hPa | 0 mm | 1.34 m/s, 58° | 0 W/m² | - |
| 1778034044 | 5° C | 61% | 1008.6 hPa | 0 mm | 0.45 m/s, 44° | 0 W/m² | - |
| 1778033741 | 5° C | 61% | 1008.4 hPa | 0 mm | 0.45 m/s, 51° | 0 W/m² | - |
| 1778033439 | 5° C | 61% | 1008.4 hPa | 0 mm | 0 m/s | 0 W/m² | - |
| 1778033136 | 5° C | 61% | 1008.3 hPa | 0 mm | 1.34 m/s, 63° | 0 W/m² | - |
| 1778032833 | 5° C | 61% | 1008.4 hPa | 0 mm | 1.34 m/s, 65° | 0 W/m² | - |
| 1778032531 | 5° C | 62% | 1008.4 hPa | 0 mm | 0.45 m/s, 19° | 0 W/m² | - |
| 1778032227 | 5° C | 62% | 1008.3 hPa | 0 mm | 1.34 m/s, 43° | 0 W/m² | - |
| 1778031925 | 5° C | 63% | 1008.3 hPa | 0 mm | 0.89 m/s, 37° | 0 W/m² | - |
| 1778031621 | 5° C | 63% | 1008.3 hPa | 0 mm | 0.89 m/s, 28° | 0 W/m² | - |
| 1778031319 | 5.56° C | 62% | 1008.2 hPa | 0 mm | 1.79 m/s, 18° | 0 W/m² | - |
| 1778031015 | 5.56° C | 62% | 1008.2 hPa | 0 mm | 1.79 m/s, 34° | 0 W/m² | - |
| 1778030711 | 5.56° C | 60% | 1008 hPa | 0 mm | 1.34 m/s, 38° | 0 W/m² | - |
| 1778030409 | 5.56° C | 62% | 1007.9 hPa | 0 mm | 1.79 m/s, 47° | 0 W/m² | - |
| 1778030106 | 5.56° C | 62% | 1007.9 hPa | 0 mm | 2.24 m/s, 56° | 0 W/m² | - |
* Rain latest hour (hover to see other rain measurements)
** Current wind speed in m/s (hover to see current wind gust speed)